FW1964 Weather Reports


time (UTC)temp
C
wind
direction
speed
KPH
gust
KPH
rain 1hr
cm
rain 24hr
cm
rain mn
cm
humidity
%
barometer
mb
20260503193008 16 250 3.2 6.4 0.00 0.00 0.00 50 1014.9
20260503191503 15 180 4.8 11.3 0.00 0.00 0.00 50 1015.0
20260503190004 15 196 1.6 11.3 0.00 0.00 0.00 51 1015.0
20260503184559 15 124 3.2 11.3 0.00 0.00 0.00 52 1015.1
20260503183057 15 227 3.2 11.3 0.00 0.00 0.00 54 1015.1
20260503181604 15 238 8.0 14.5 0.00 0.00 0.00 54 1015.0
20260503180059 15 232 3.2 16.1 0.00 0.00 0.00 55 1015.0
20260503174554 14 146 0.0 4.8 0.00 0.00 0.00 56 1015.1
20260503173058 14 182 1.6 9.7 0.00 0.00 0.00 56 1015.0
20260503171550 14 187 4.8 9.7 0.00 0.00 0.00 56 1014.9
20260503081502 12 80 0.0 4.8 0.00 0.00 0.00 62 1013.3
20260503071604 12 49 0.0 1.6 0.00 0.00 0.00 62 1013.5
20260503070103 12 83 0.0 0.0 0.00 0.00 0.00 62 1013.5
20260503060107 12 184 0.0 3.2 0.00 0.00 0.00 61 1013.5
20260503054556 12 188 0.0 3.2 0.00 0.00 0.00 61 1013.7
20260503053053 12 128 0.0 6.4 0.00 0.00 0.00 61 1013.7
20260503051551 12 113 0.0 8.0 0.00 0.00 0.00 61 1013.9
20260503050052 12 137 1.6 6.4 0.00 0.00 0.00 61 1014.0
20260503044556 12 165 1.6 9.7 0.00 0.00 0.00 61 1014.0
20260503043056 13 205 3.2 12.9 0.00 0.00 0.00 61 1013.9
20260503041549 13 180 0.0 9.7 0.00 0.00 0.00 61 1013.8
20260503040049 13 178 1.6 8.0 0.00 0.00 0.00 60 1013.6
20260503034550 13 196 1.6 6.4 0.00 0.00 0.00 60 1013.4
20260503033100 13 209 0.0 8.0 0.00 0.00 0.00 60 1013.2
20260503031547 13 173 1.6 8.0 0.00 0.00 0.00 60 1013.0
20260503030047 13 215 4.8 14.5 0.00 0.00 0.00 60 1013.0
20260503024545 13 183 4.8 12.9 0.00 0.00 0.00 59 1012.9
20260503023057 13 223 6.4 12.9 0.00 0.00 0.00 59 1012.9
20260503021549 13 211 4.8 12.9 0.00 0.00 0.00 59 1012.9
20260503020043 13 261 3.2 11.3 0.00 0.00 0.00 59 1012.9
20260503014542 13 235 4.8 9.7 0.00 0.00 0.00 59 1012.9
20260503013042 13 214 1.6 8.0 0.00 0.00 0.00 60 1013.1
20260503011554 13 197 4.8 16.1 0.00 0.00 0.00 60 1013.1
20260503010051 13 206 6.4 16.1 0.00 0.00 0.00 61 1013.0
20260503004540 13 213 8.0 16.1 0.00 0.00 0.00 61 1013.0
20260503003049 13 246 6.4 17.7 0.00 0.00 0.00 61 1012.9
20260503001537 14 236 4.8 12.9 0.00 0.00 0.00 60 1013.1
20260503000049 14 145 3.2 14.5 0.00 0.00 0.00 60 1013.1
20260502234537 14 229 4.8 17.7 0.00 0.00 0.00 59 1013.2
20260502233037 15 221 3.2 17.7 0.00 0.00 0.00 59 1013.1
20260502231532 15 205 6.4 14.5 0.00 0.00 0.00 59 1013.2
20260502230032 15 242 8.0 16.1 0.00 0.00 0.00 59 1013.4
20260502224530 15 180 8.0 17.7 0.00 0.00 0.00 58 1013.7
20260502223027 16 254 8.0 19.3 0.00 0.00 0.00 57 1013.9
20260502221526 16 240 8.0 17.7 0.00 0.00 0.00 56 1014.0
20260502220025 16 223 9.7 16.1 0.00 0.00 0.00 56 1014.2
20260502214524 17 191 9.7 17.7 0.00 0.00 0.00 54 1014.3
20260502213028 17 187 9.7 14.5 0.00 0.00 0.00 54 1014.4
20260502211521 16 273 8.0 16.1 0.00 0.00 0.00 55 1014.7
20260502210019 16 230 4.8 11.3 0.00 0.00 0.00 57 1014.7
20260502204524 16 283 6.4 14.5 0.00 0.00 0.00 56 1014.8
20260502203020 16 198 8.0 17.7 0.00 0.00 0.00 56 1014.9
20260502201518 16 190 3.2 9.7 0.00 0.00 0.00 53 1015.2
20260502200015 16 227 4.8 12.9 0.00 0.00 0.00 53 1015.4
20260502194512 16 96 4.8 11.3 0.00 0.00 0.00 55 1015.7